Cedar Rapids, IA

4:46 AM CST on December 10, 2019 (GMT -0600)
The Eastern Iowa Airport

Weather History for KCID - August, 2019

Change the Weather History Date:

Monday, August 26, 2019

  Actual Average Record
Temperature  
Mean Temperature 66 °F 70 °F  
Max Temperature 70 °F 81 °F 97 °F (1924)
Min Temperature 61 °F 59 °F 41 °F (1934)
Degree Days  
Heating Degree Days 0 1  
Month to date heating degree days 2 7  
Since 1 June heating degree days 13 40  
Since 1 July heating degree days 2 11  
Cooling Degree Days 1 6  
Month to date cooling degree days 146 175  
Year to date cooling degree days 648 642  
Since 1 June cooling degree days 620 593  
Growing Degree Days 16 (Base 50)    
Moisture  
Dew Point 64 °F    
Average Humidity 92    
Maximum Humidity 100    
Minimum Humidity 84    
Precipitation  
Precipitation 0.12 in 0.14 in 2.24 in (2004)
Month to date precipitation 5.19 3.79  
Year to date precipitation 27.78 24.61  
Sea Level Pressure  
Sea Level Pressure 29.77 in    
Wind  
Wind Speed 7 mph (NNE)    
Max Wind Speed 16 mph    
Max Gust Speed 22 mph    
Visibility 6 miles    
Events Fog , Rain    
T = Trace of Precipitation, MM = Missing Value Source: NWS Daily Summary

Daily Weather History Graph

Daily Weather History Graph

Search for Another Location

Airport or City:

Astronomy

Aug. 26, 2019 Rise Set
Actual Time 6:26 AM CDT 7:50 PM CDT
Civil Twilight 5:57 AM CDT 8:19 PM CDT
Nautical Twilight 5:22 AM CDT 8:54 PM CDT
Astronomical Twilight 4:44 AM CDT 9:31 PM CDT
Moon 1:48 AM CDT (8/26) 5:17 PM CDT (8/26)
Length of Visible Light 14h 22m
Length of Day
13h 24m
Waning Crescent, 19% of the Moon is Illuminated
Aug 26
Waning Crescent
Aug 30
New
Sep 5
First Quarter
Sep 13
Full
Sep 21
Last Quarter

Hourly Weather History & Observations

Time (CDT) Temp. Dew Point Humidity Pressure Visibility Wind Dir Wind Speed Gust Speed Precip Events Conditions
12:52 AM 61.0 °F 61.0 °F 100% 29.86 in 8.0 mi East 16.1 mph - 0.01 in Rain Light Rain
1:18 AM 61.0 °F 61.0 °F 100% 29.85 in 8.0 mi East 15.0 mph - 0.00 in   Scattered Clouds
1:52 AM 62.1 °F 62.1 °F 100% 29.82 in 7.0 mi ESE 15.0 mph - 0.01 in Rain Light Rain
2:52 AM 63.0 °F 63.0 °F 100% 29.82 in 8.0 mi East 6.9 mph - 0.01 in Rain Light Rain
3:05 AM 62.1 °F 62.1 °F 100% 29.82 in 9.0 mi East 6.9 mph - 0.00 in Rain Light Rain
3:38 AM 62.1 °F 62.1 °F 100% 29.80 in 10.0 mi East 9.2 mph - 0.00 in   Overcast
3:52 AM 62.1 °F 62.1 °F 100% 29.78 in 9.0 mi East 9.2 mph - 0.00 in   Mostly Cloudy
3:59 AM 62.1 °F 62.1 °F 100% 29.79 in 9.0 mi East 9.2 mph - N/A   Mostly Cloudy
4:42 AM 62.1 °F 62.1 °F 100% 29.77 in 10.0 mi ENE 9.2 mph - N/A   Overcast
4:52 AM 63.0 °F 62.1 °F 97% 29.76 in 10.0 mi NE 5.8 mph - N/A   Overcast
5:52 AM 63.0 °F 63.0 °F 100% 29.78 in 7.0 mi North 6.9 mph - N/A   Overcast
5:55 AM 63.0 °F 63.0 °F 100% 29.78 in 7.0 mi North 6.9 mph - N/A   Overcast
7:26 AM 63.0 °F 63.0 °F 100% 29.78 in 2.5 mi NE 8.1 mph - N/A   Overcast
7:52 AM 63.0 °F 63.0 °F 100% 29.77 in 1.2 mi NE 8.1 mph - N/A   Overcast
8:21 AM 63.0 °F 63.0 °F 100% 29.78 in 0.5 mi NE 5.8 mph - 0.01 in Fog , Rain Light Rain
8:52 AM 63.0 °F 63.0 °F 100% 29.77 in 0.8 mi NNE 5.8 mph - 0.03 in Rain Light Rain
9:04 AM 63.0 °F 63.0 °F 100% 29.78 in 1.0 mi NNE 5.8 mph - 0.00 in Rain Light Rain
9:52 AM 64.0 °F 64.0 °F 100% 29.76 in 2.0 mi North 5.8 mph - 0.01 in   Overcast
10:52 AM 66.0 °F 64.9 °F 96% 29.76 in 2.0 mi NE 4.6 mph - N/A   Overcast
10:54 AM 66.0 °F 64.9 °F 96% 29.76 in 6.0 mi NE 4.6 mph - N/A   Overcast
11:52 AM 66.9 °F 64.9 °F 93% 29.75 in 5.0 mi Variable 3.5 mph - N/A   Overcast
12:52 PM 69.1 °F 64.9 °F 87% 29.72 in 7.0 mi Variable 3.5 mph - N/A   Overcast
1:52 PM 69.1 °F 66.0 °F 90% 29.70 in 7.0 mi SW 4.6 mph - N/A   Overcast
2:52 PM 70.0 °F 66.0 °F 87% 29.69 in 6.0 mi Calm Calm - N/A   Overcast
3:52 PM 70.0 °F 66.0 °F 87% 29.71 in 10.0 mi WNW 8.1 mph - N/A   Overcast
4:52 PM 69.1 °F 66.0 °F 90% 29.71 in 10.0 mi WNW 6.9 mph - N/A   Overcast
5:52 PM 69.1 °F 66.0 °F 90% 29.73 in 10.0 mi West 9.2 mph - N/A   Overcast
5:59 PM 69.1 °F 66.0 °F 90% 29.73 in 10.0 mi West 6.9 mph - N/A   Overcast
6:52 PM 69.1 °F 66.0 °F 90% 29.73 in 10.0 mi West 5.8 mph - N/A   Overcast
7:52 PM 68.0 °F 66.9 °F 96% 29.75 in 7.0 mi WSW 4.6 mph - N/A   Overcast
8:07 PM 66.9 °F 66.9 °F 100% 29.76 in 2.0 mi West 4.6 mph - 0.04 in Rain Heavy Rain
8:18 PM 66.9 °F 66.9 °F 100% 29.76 in 3.0 mi West 9.2 mph - 0.05 in Rain Rain
8:52 PM 66.9 °F 66.0 °F 97% 29.77 in 9.0 mi West 5.8 mph - 0.06 in   Overcast
9:52 PM 64.0 °F 64.0 °F 100% 29.78 in 5.0 mi West 6.9 mph - N/A   Overcast
10:52 PM 62.1 °F 62.1 °F 100% 29.78 in 8.0 mi WNW 6.9 mph - N/A   Clear
11:52 PM 62.1 °F 62.1 °F 100% 29.77 in 7.0 mi WNW 8.1 mph - N/A   Clear